Weather History for Knox, IN

Change the Weather History Date:

Saturday, January 21, 2012

  Actual Average (KVPZ) Record (KVPZ)
Temperature  
Mean Temperature 14 °F 23 °F  
Max Temperature 21 °F 31 °F 62 °F (1999)
Min Temperature 6 °F 16 °F -7 °F (2000)
Degree Days  
Heating Degree Days 52 42  
Month to date heating degree days 873  
Since 1 July heating degree days 3275  
Cooling Degree Days 0 0  
Month to date cooling degree days 0  
Year to date cooling degree days 0  
Moisture  
Dew Point 8 °F    
Average Humidity 72    
Maximum Humidity 91    
Minimum Humidity 57    
Precipitation  
Precipitation 0.00 in 0.06 in 0.15 in (2010)
Month to date precipitation 1.15  
Year to date precipitation 1.15  
Sea Level Pressure  
Sea Level Pressure 30.17 in    
Wind  
Wind Speed 7 mph (NE)    
Max Wind Speed 10 mph    
Max Gust Speed -    
Visibility 10 miles    
Events      
T = Trace of Precipitation, MM = Missing Value Source: NWS Daily Summary

Daily Weather History Graph

Daily Weather History Graph

Search for Another Location

Airport:

Trip Planner

Search our weather history database for the weather conditions in past years. The results will help you decide how hot, cold, wet, or windy it might be!

Date:

Astronomy

Jan. 21, 2012 Rise Set
Actual Time 7:07 AM CST 4:48 PM CST
Civil Twilight 6:37 AM CST 5:18 PM CST
Nautical Twilight 6:03 AM CST 5:52 PM CST
Astronomical Twilight 5:30 AM CST 6:25 PM CST
Moon 5:38 AM CST (1/21) 3:23 PM CST (1/21)
Length of Visible Light 10h 41m
Length of Day
9h 41m
Waning Crescent, 3% of the Moon is Illuminated
Jan 21
Waning Crescent
Jan 23
New
Jan 30
First Quarter
Feb 7
Full
Feb 14
Last Quarter

Hourly Weather History & Observations

Time (CST) Temp. Windchill Dew Point Humidity Pressure Visibility Wind Dir Wind Speed Gust Speed Precip Events Conditions
12:15 AM 16.3 °F 6.7 °F 12.6 °F 85% 30.03 in 10.0 mi NE 6.9 mph - N/A   Overcast
12:35 AM 16.3 °F 5.7 °F 12.7 °F 86% 30.03 in 10.0 mi NE 8.1 mph - N/A   Overcast
1:15 AM 16.3 °F 4.1 °F 12.9 °F 86% 30.04 in 10.0 mi NNE 10.4 mph - N/A   Overcast
1:35 AM 16.3 °F 4.9 °F 12.7 °F 86% 30.05 in 10.0 mi NNE 9.2 mph - N/A   Overcast
1:55 AM 16.3 °F 4.9 °F 12.7 °F 86% 30.06 in 10.0 mi NNE 9.2 mph - N/A   Overcast
2:35 AM 16.2 °F 4.7 °F 12.2 °F 84% 30.06 in 10.0 mi NNE 9.2 mph - N/A   Overcast
2:55 AM 15.4 °F 3.0 °F 11.7 °F 85% 30.08 in 10.0 mi NNE 10.4 mph - N/A   Overcast
3:15 AM 13.3 °F 1.1 °F 9.7 °F 86% 30.09 in 10.0 mi NNE 9.2 mph - N/A   Scattered Clouds
3:35 AM 11.3 °F -0.4 °F 7.9 °F 86% 30.09 in 10.0 mi North 8.1 mph - N/A   Clear
4:15 AM 10.2 °F -2.7 °F 7.3 °F 88% 30.10 in 10.0 mi NNE 9.2 mph - N/A   Clear
4:35 AM 9.3 °F -3.8 °F 6.6 °F 89% 30.10 in 10.0 mi NNE 9.2 mph - N/A   Clear
4:55 AM 9.0 °F -3.2 °F 6.4 °F 89% 30.11 in 10.0 mi NNE 8.1 mph - N/A   Clear
5:15 AM 8.1 °F -2.0 °F 5.4 °F 89% 30.12 in 10.0 mi NNE 5.8 mph - N/A   Clear
5:35 AM 6.6 °F -5.0 °F 4.1 °F 89% 30.13 in 10.0 mi NNE 6.9 mph - N/A   Mostly Cloudy
5:55 AM 8.6 °F -3.7 °F 6.4 °F 91% 30.13 in 10.0 mi NNE 8.1 mph - N/A   Overcast
6:15 AM 12.9 °F 2.6 °F 9.9 °F 88% 30.14 in 10.0 mi NNE 6.9 mph - N/A   Mostly Cloudy
6:35 AM 12.9 °F -0.2 °F 9.1 °F 85% 30.14 in 10.0 mi NNE 10.4 mph - N/A   Scattered Clouds
6:55 AM 12.9 °F 1.6 °F 8.8 °F 84% 30.15 in 10.0 mi NE 8.1 mph - N/A   Clear
7:15 AM 12.7 °F -0.4 °F 7.9 °F 81% 30.15 in 10.0 mi ENE 10.4 mph - N/A   Clear
7:35 AM 12.0 °F 2.7 °F 6.8 °F 80% 30.17 in 10.0 mi NNE 5.8 mph - N/A   Clear
7:55 AM 11.3 °F 1.9 °F 6.1 °F 80% 30.18 in 10.0 mi NE 5.8 mph - N/A   Clear
8:15 AM 11.5 °F 2.1 °F 6.1 °F 79% 30.19 in 10.0 mi NE 5.8 mph - N/A   Clear
8:55 AM 13.6 °F 3.5 °F 5.9 °F 71% 30.21 in 10.0 mi NE 6.9 mph - N/A   Clear
9:15 AM 14.4 °F 4.3 °F 6.1 °F 70% 30.23 in 10.0 mi NNE 6.9 mph - N/A   Clear
9:35 AM 15.1 °F 5.2 °F 6.4 °F 69% 30.23 in 10.0 mi NE 6.9 mph - N/A   Clear
9:55 AM 16.3 °F 6.7 °F 6.8 °F 66% 30.23 in 10.0 mi NE 6.9 mph - N/A   Clear
10:15 AM 17.1 °F 8.7 °F 7.0 °F 65% 30.23 in 10.0 mi ENE 5.8 mph - N/A   Clear
10:35 AM 17.8 °F 9.6 °F 7.2 °F 63% 30.23 in 10.0 mi ENE 5.8 mph - N/A   Clear
10:55 AM 18.7 °F 7.0 °F 7.2 °F 61% 30.23 in 10.0 mi ENE 10.4 mph - N/A   Clear
11:15 AM 19.2 °F 8.4 °F 7.2 °F 59% 30.23 in 10.0 mi ENE 9.2 mph - N/A   Clear
11:35 AM 19.2 °F 8.4 °F 7.3 °F 60% 30.23 in 10.0 mi NE 9.2 mph - N/A   Clear
11:55 AM 19.4 °F 11.5 °F 7.2 °F 59% 30.23 in 10.0 mi NE 5.8 mph - N/A   Clear
12:15 PM 20.1 °F 12.3 °F 7.5 °F 58% 30.22 in 10.0 mi ENE 5.8 mph - N/A   Clear
12:35 PM 20.3 °F 12.5 °F 7.7 °F 58% 30.22 in 10.0 mi NE 5.8 mph - N/A   Clear
12:55 PM 20.7 °F 11.9 °F 7.7 °F 57% 30.21 in 10.0 mi NNE 6.9 mph - N/A   Clear
1:15 PM 21.0 °F 12.4 °F 7.9 °F 57% 30.21 in 10.0 mi ENE 6.9 mph - N/A   Clear
1:35 PM 21.2 °F 12.6 °F 7.9 °F 57% 30.20 in 10.0 mi ENE 6.9 mph - N/A   Clear
2:15 PM 21.4 °F 12.8 °F 8.1 °F 57% 30.21 in 10.0 mi NNE 6.9 mph - N/A   Clear
2:35 PM 21.2 °F 12.6 °F 8.4 °F 58% 30.20 in 10.0 mi NNE 6.9 mph - N/A   Clear
2:55 PM 21.2 °F 13.6 °F 8.6 °F 58% 30.20 in 10.0 mi ENE 5.8 mph - N/A   Clear
3:15 PM 21.7 °F 15.5 °F 8.4 °F 57% 30.19 in 10.0 mi ENE 4.6 mph - N/A   Clear
3:35 PM 21.7 °F 17.0 °F 8.6 °F 57% 30.19 in 10.0 mi East 3.5 mph - N/A   Clear
3:55 PM 21.4 °F 16.6 °F 8.6 °F 58% 30.20 in 10.0 mi East 3.5 mph - N/A   Clear
4:15 PM 20.7 °F 14.2 °F 7.9 °F 58% 30.20 in 10.0 mi East 4.6 mph - N/A   Clear
4:35 PM 19.4 °F 12.8 °F 7.7 °F 60% 30.20 in 10.0 mi ENE 4.6 mph - N/A   Clear
4:55 PM 18.7 °F 10.6 °F 7.3 °F 61% 30.20 in 10.0 mi East 5.8 mph - N/A   Clear
5:15 PM 17.4 °F 10.4 °F 6.6 °F 63% 30.22 in 10.0 mi ESE 4.6 mph - N/A   Clear
5:35 PM 16.9 °F 11.5 °F 6.8 °F 65% 30.23 in 10.0 mi ESE 3.5 mph - N/A   Clear
5:55 PM 15.3 °F 9.6 °F 6.8 °F 69% 30.24 in 10.0 mi East 3.5 mph - N/A   Clear
6:15 PM 14.0 °F 5.1 °F 6.6 °F 72% 30.23 in 10.0 mi ESE 5.8 mph - N/A   Clear
6:35 PM 13.1 °F 5.4 °F 5.9 °F 73% 30.23 in 10.0 mi ESE 4.6 mph - N/A   Clear
6:55 PM 13.5 °F 4.4 °F 6.4 °F 74% 30.23 in 10.0 mi ESE 5.8 mph - N/A   Clear
7:15 PM 12.6 °F 4.8 °F 5.5 °F 74% 30.23 in 10.0 mi East 4.6 mph - N/A   Clear
7:35 PM 11.7 °F 3.7 °F 5.5 °F 76% 30.23 in 10.0 mi East 4.6 mph - N/A   Clear
7:55 PM 12.4 °F 3.1 °F 5.9 °F 75% 30.22 in 10.0 mi ESE 5.8 mph - N/A   Clear
8:15 PM 10.2 °F -0.6 °F 4.3 °F 77% 30.22 in 10.0 mi ESE 6.9 mph - N/A   Clear
8:35 PM 11.8 °F 2.5 °F 5.9 °F 77% 30.22 in 10.0 mi ESE 5.8 mph - N/A   Clear
8:55 PM 11.7 °F 1.1 °F 5.9 °F 78% 30.20 in 10.0 mi ESE 6.9 mph - N/A   Clear
9:15 PM 11.1 °F 1.7 °F 5.4 °F 78% 30.20 in 10.0 mi East 5.8 mph - N/A   Clear
9:35 PM 11.5 °F 5.3 °F 6.1 °F 79% 30.20 in 10.0 mi East 3.5 mph - N/A   Clear
9:55 PM 11.5 °F 3.5 °F 6.3 °F 80% 30.19 in 10.0 mi East 4.6 mph - N/A   Clear
10:15 PM 11.3 °F 5.1 °F 6.3 °F 80% 30.19 in 10.0 mi East 3.5 mph - N/A   Clear
10:35 PM 9.5 °F 1.2 °F 5.4 °F 83% 30.17 in 10.0 mi ESE 4.6 mph - N/A   Clear
10:55 PM 9.9 °F 1.6 °F 6.4 °F 86% 30.16 in 10.0 mi ESE 4.6 mph - N/A   Clear
11:15 PM 10.9 °F -1.8 °F 7.3 °F 85% 30.14 in 10.0 mi ESE 9.2 mph - N/A   Clear
11:35 PM 13.5 °F 0.5 °F 9.3 °F 84% 30.14 in 10.0 mi SE 10.4 mph - N/A   Clear
11:55 PM 14.2 °F 0.7 °F 10.2 °F 84% 30.15 in 10.0 mi SE 11.5 mph - N/A   Scattered Clouds